Pittsburgh, PA

5:15 AM EDT on October 01, 2016 (GMT -0400)
Pittsburgh International

Weather History for KPIT - January, 2012

Change the Weather History Date:

Saturday, January 28, 2012

  Actual Average Record
Temperature  
Mean Temperature 35 °F 29 °F  
Max Temperature 40 °F 36 °F 70 °F (1876)
Min Temperature 30 °F 21 °F -10 °F (1977)
Degree Days  
Heating Degree Days 30 36  
Month to date heating degree days 919 1029  
Since 1 July heating degree days 2756 3204  
Cooling Degree Days 0 0  
Month to date cooling degree days 0 0  
Year to date cooling degree days 0 0  
Moisture  
Dew Point 24 °F    
Average Humidity 62    
Maximum Humidity 85    
Minimum Humidity 38    
Precipitation  
Precipitation 0.04 in 0.08 in 0.81 in (1943)
Month to date precipitation 3.83 2.44  
Year to date precipitation 3.83 2.44  
Snow  
Snow T in 0.40 in 4.80 in (1943)
Month to date snowfall 15.6 10.3  
Since 1 July snowfall 18.4 21.0  
Snow Depth 0.00 in    
Sea Level Pressure  
Sea Level Pressure 30.02 in    
Wind  
Wind Speed 10 mph (SW)    
Max Wind Speed 25 mph    
Max Gust Speed 40 mph    
Visibility 9 miles    
Events Rain    
T = Trace of Precipitation, MM = Missing Value Source: NWS Daily Summary

Daily Weather History Graph

Daily Weather History Graph

Search for Another Location

Airport or City:

Trip Planner

Search our weather history database for the weather conditions in past years. The results will help you decide how hot, cold, wet, or windy it might be!

Date:

Astronomy

Jan. 28, 2012 Rise Set
Actual Time 7:34 AM EST 5:33 PM EST
Civil Twilight 7:05 AM EST 6:02 PM EST
Nautical Twilight 6:32 AM EST 6:35 PM EST
Astronomical Twilight 6:00 AM EST 7:07 PM EST
Moon 9:54 AM EST (1/28) 11:21 PM EST (1/28)
Length of Visible Light 10h 57m
Length of Day
9h 59m
Waxing Crescent, 27% of the Moon is Illuminated
Jan 28
Waxing Crescent
Jan 30
First Quarter
Feb 7
Full
Feb 14
Last Quarter
Feb 21
New

Hourly Weather History & Observations

Time (EST) Temp. Windchill Dew Point Humidity Pressure Visibility Wind Dir Wind Speed Gust Speed Precip Events Conditions
12:51 AM 32.0 °F 28.7 °F 28.9 °F 88% 30.04 in 8.0 mi SSW 3.5 mph - N/A   Mostly Cloudy
1:51 AM 32.0 °F - 28.9 °F 88% 30.04 in 8.0 mi Calm Calm - N/A   Overcast
2:38 AM 32.0 °F 27.5 °F 28.4 °F 87% 29.98 in 7.0 mi South 4.6 mph - N/A   Overcast
2:51 AM 33.1 °F 30.0 °F 28.9 °F 85% 30.04 in 7.0 mi South 3.5 mph - N/A   Overcast
3:51 AM 33.1 °F 27.7 °F 28.9 °F 85% 30.01 in 8.0 mi South 5.8 mph - N/A   Overcast
4:51 AM 33.8 °F 28.6 °F 28.4 °F 81% 29.96 in 8.0 mi South 5.8 mph - N/A   Overcast
5:28 AM 33.8 °F - 28.4 °F 81% 29.95 in 8.0 mi Calm Calm - N/A   Overcast
5:51 AM 33.1 °F 30.0 °F 28.9 °F 85% 29.99 in 9.0 mi South 3.5 mph - N/A   Overcast
6:51 AM 32.0 °F 28.7 °F 28.0 °F 85% 29.99 in 8.0 mi South 3.5 mph - N/A   Overcast
7:51 AM 33.1 °F 27.7 °F 28.0 °F 82% 29.97 in 8.0 mi South 5.8 mph - N/A   Overcast
8:51 AM 34.0 °F 29.8 °F 28.9 °F 82% 29.95 in 8.0 mi South 4.6 mph - N/A   Overcast
9:19 AM 33.8 °F 27.0 °F 28.4 °F 81% 29.88 in 8.0 mi SSE 8.1 mph - N/A   Mostly Cloudy
10:51 AM 37.9 °F 30.5 °F 30.9 °F 76% 29.91 in 10.0 mi SSW 11.5 mph - N/A   Overcast
12:51 PM 37.9 °F 28.9 °F 34.0 °F 86% 29.91 in 5.0 mi SW 16.1 mph 26.5 mph 0.01 in Rain Light Rain
1:51 PM 37.0 °F 26.7 °F 32.0 °F 82% 29.93 in 7.0 mi West 19.6 mph 34.5 mph 0.03 in   Mostly Cloudy
2:51 PM 39.9 °F 30.5 °F 26.1 °F 58% 29.96 in 10.0 mi West 19.6 mph 38.0 mph N/A   Mostly Cloudy
3:34 PM 37.4 °F 28.2 °F 26.6 °F 65% 29.95 in 10.0 mi West 16.1 mph 27.6 mph N/A   Mostly Cloudy
3:51 PM 37.9 °F 28.9 °F 23.0 °F 55% 30.01 in 10.0 mi WSW 16.1 mph 32.2 mph N/A   Mostly Cloudy
4:51 PM 36.0 °F 26.7 °F 18.0 °F 48% 30.06 in 10.0 mi West 15.0 mph 31.1 mph N/A   Partly Cloudy
5:51 PM 35.1 °F 26.4 °F 15.1 °F 44% 30.09 in 10.0 mi West 12.7 mph 25.3 mph N/A   Partly Cloudy
6:51 PM 34.0 °F 23.8 °F 12.9 °F 42% 30.14 in 10.0 mi West 16.1 mph 28.8 mph N/A   Partly Cloudy
7:51 PM 33.1 °F 23.0 °F 10.9 °F 40% 30.16 in 10.0 mi West 15.0 mph 21.9 mph N/A   Partly Cloudy
8:51 PM 32.0 °F 22.5 °F 10.0 °F 40% 30.17 in 10.0 mi West 12.7 mph 20.7 mph N/A   Clear
9:51 PM 30.9 °F 21.2 °F 10.9 °F 43% 30.18 in 10.0 mi West 12.7 mph 23.0 mph N/A   Clear
10:51 PM 30.9 °F 22.2 °F 10.9 °F 43% 30.18 in 10.0 mi WSW 10.4 mph 20.7 mph N/A   Clear
11:51 PM 30.0 °F 22.4 °F 12.0 °F 47% 30.18 in 10.0 mi WSW 8.1 mph 17.3 mph N/A   Clear